Location: Gallinara
(44.0333°N, 8.2333°E)
Time: 00:18:07
(UTC+00:00)

CZ-4C R/B - Pass Details

Date: 25 September 2020
Orbit: 626 x 1376 km, 63.4° (Epoch: 31 October)

Event Time Altitude Azimuth Distance (km) Brightness Sun altitude
Rises 04:04:50 0° 324° (NW) 3,802 5.3 -13.9°
Reaches altitude 10° 04:07:20 10° 327° (NNW) 2,949 4.8 -13.5°
Maximum altitude 04:14:29 65° 49° (NE) 1,340 3.5 -12.2°
Drops below altitude 10° 04:22:45 10° 131° (SE) 3,378 5.9 -10.7°
Sets 04:25:47 0° 134° (SE) 4,387 6.5 -10.2°
